TimeEST,TemperatureF,Dew PointF,Humidity,Sea Level PressureIn,VisibilityMPH,Wind Direction,Wind SpeedMPH,Gust SpeedMPH,PrecipitationIn,Events,Conditions,WindDirDegrees,DateUTC
12:08 AM,33.8,28.4,81,29.70,1.5,North,8.1,-,0.00,Snow,Light Snow,360,2013-02-14 05:08:00
12:27 AM,33.8,28.4,81,29.71,1.5,North,5.8,-,0.02,Snow,Light Snow,10,2013-02-14 05:27:00
12:33 AM,33.8,28.4,81,29.71,1.8,North,8.1,-,0.02,Snow,Light Snow,360,2013-02-14 05:33:00
12:39 AM,33.8,30.2,87,29.71,2.0,North,8.1,-,0.02,Snow,Light Snow,360,2013-02-14 05:39:00
12:47 AM,33.8,30.2,87,29.71,1.8,North,8.1,-,0.03,Snow,Light Snow,360,2013-02-14 05:47:00
12:56 AM,33.1,30.0,89,29.71,1.5,North,5.8,-,0.03,Snow,Light Snow,10,2013-02-14 05:56:00
1:11 AM,33.8,30.2,87,29.71,2.5,North,5.8,-,0.00,Snow,Light Snow,10,2013-02-14 06:11:00
1:53 AM,33.8,30.2,87,29.72,4.0,NNE,5.8,-,0.01,Snow,Light Snow,20,2013-02-14 06:53:00
1:56 AM,34.0,30.9,89,29.73,5.0,North,5.8,-,0.01,Snow,Light Snow,10,2013-02-14 06:56:00
2:56 AM,34.0,30.9,89,29.73,10.0,North,8.1,-,0.00,,Overcast,10,2013-02-14 07:56:00
3:35 AM,33.8,30.2,87,29.75,10.0,North,5.8,-,N/A,,Mostly Cloudy,350,2013-02-14 08:35:00
3:56 AM,33.1,30.0,89,29.77,10.0,NNW,9.2,-,N/A,,Overcast,330,2013-02-14 08:56:00
4:05 AM,33.8,30.2,87,29.78,10.0,NNW,6.9,-,N/A,,Overcast,330,2013-02-14 09:05:00
4:56 AM,30.9,28.0,89,29.79,10.0,NNW,4.6,-,N/A,,Clear,330,2013-02-14 09:56:00
5:40 AM,26.6,24.8,93,29.81,2.0,NW,4.6,-,N/A,,Clear,320,2013-02-14 10:40:00
5:49 AM,28.4,24.8,86,29.81,5.0,NW,3.5,-,N/A,,Clear,320,2013-02-14 10:49:00
5:56 AM,28.9,26.1,89,29.82,5.0,Calm,Calm,-,N/A,,Clear,0,2013-02-14 10:56:00
6:33 AM,24.8,24.8,100,29.83,0.5,WNW,3.5,-,N/A,Fog,Light Freezing Fog,290,2013-02-14 11:33:00
6:40 AM,23.0,21.2,93,29.84,0.2,WNW,4.6,-,N/A,Fog,Light Freezing Fog,290,2013-02-14 11:40:00
6:48 AM,23.0,21.2,93,29.85,0.2,West,5.8,-,N/A,Fog,Light Freezing Fog,280,2013-02-14 11:48:00
6:56 AM,25.0,21.9,88,29.86,1.0,WNW,4.6,-,N/A,,Clear,300,2013-02-14 11:56:00
7:06 AM,24.8,23.0,93,29.86,0.8,NW,5.8,-,N/A,,Clear,310,2013-02-14 12:06:00
7:11 AM,24.8,23.0,93,29.86,2.5,WNW,4.6,-,N/A,,Clear,300,2013-02-14 12:11:00
7:24 AM,26.6,24.8,93,29.87,1.2,WNW,4.6,-,N/A,,Clear,290,2013-02-14 12:24:00
7:36 AM,26.6,26.6,100,29.88,3.0,WNW,4.6,-,N/A,,Clear,290,2013-02-14 12:36:00
7:56 AM,28.9,28.0,96,29.90,7.0,WNW,6.9,-,N/A,,Clear,300,2013-02-14 12:56:00
8:56 AM,33.1,30.9,92,29.92,10.0,WNW,6.9,-,N/A,,Clear,300,2013-02-14 13:56:00
10:56 AM,39.0,25.0,57,29.95,10.0,NNW,6.9,-,N/A,,Clear,330,2013-02-14 15:56:00
11:56 AM,41.0,21.9,47,29.95,10.0,NW,6.9,-,N/A,,Clear,310,2013-02-14 16:56:00
12:56 PM,41.0,21.0,45,29.94,10.0,NNW,5.8,-,N/A,,Clear,330,2013-02-14 17:56:00
1:56 PM,43.0,21.0,42,29.94,10.0,NW,3.5,-,N/A,,Clear,310,2013-02-14 18:56:00
2:56 PM,44.1,19.0,37,29.95,10.0,Calm,Calm,-,N/A,,Clear,0,2013-02-14 19:56:00
3:56 PM,41.0,24.1,51,29.97,10.0,SW,8.1,-,N/A,,Clear,230,2013-02-14 20:56:00
4:56 PM,39.9,26.1,58,29.99,10.0,SSW,8.1,-,N/A,,Clear,200,2013-02-14 21:56:00
5:56 PM,37.9,26.1,62,30.00,10.0,South,4.6,-,N/A,,Clear,190,2013-02-14 22:56:00
6:56 PM,33.1,24.1,70,30.01,10.0,Calm,Calm,-,N/A,,Clear,0,2013-02-14 23:56:00
7:56 PM,30.9,24.1,76,30.01,10.0,Calm,Calm,-,N/A,,Clear,0,2013-02-15 00:56:00
8:56 PM,30.0,24.1,79,30.01,8.0,Calm,Calm,-,N/A,,Clear,0,2013-02-15 01:56:00
9:56 PM,32.0,27.0,82,30.03,8.0,SSW,3.5,-,N/A,,Scattered Clouds,200,2013-02-15 02:56:00
10:09 PM,33.8,28.4,81,30.02,9.0,Calm,Calm,-,N/A,,Mostly Cloudy,0,2013-02-15 03:09:00
10:35 PM,33.8,28.4,81,30.02,9.0,SSW,3.5,-,N/A,,Scattered Clouds,200,2013-02-15 03:35:00
10:56 PM,37.9,33.1,83,30.02,8.0,SSW,3.5,-,N/A,,Clear,210,2013-02-15 03:56:00
11:56 PM,34.0,30.9,89,30.01,5.0,South,3.5,-,N/A,,Partly Cloudy,190,2013-02-15 04:56:00